www.pogodaiklimat.ru

ПОГОДА в Moomba Airport

  • Прогноз погоды в Moomba Airport
  • Монитор погоды в Moomba Airport
  • Климат города

АРХИВ ПОГОДЫ в Moomba Airport

Время (UTC), дата Ветер
(напр.,м/с)
 
Видим.   Явления Облачность Т
(С)
Тd
(С)
f
(%)
Тe
(С)
Тes
(С)
Комфортность P
(гПа)
Po
(гПа)
Тmin
(С)
Tmax
(С)
R
(мм)
S
(см)
09 14.01 Ю 9 н/о н/о +33.1 +5.6 18 +31 +31 жарко 1007.3 1003.0
10 14.01 Ю 7 н/о н/о +31.7 +6.0 20 +30 +30 жарко 1008.2 1003.9
11 14.01 Ю 6 н/о н/о +30.3 +6.9 23 +29 +29 жарко 1009.3 1005.0
12 14.01 Ю 6 н/о н/о +28.8 +6.8 25 +28 +28 жарко 1010.2 1005.9
13 14.01 Ю 5 н/о н/о +27.6 +7.5 28 +27 +27 жарко 1010.9 1006.6
14 14.01 Ю 6 н/о н/о +27.0 +7.5 29 +27 +27 жарко 1011.0 1006.7
15 14.01 Ю 5 н/о н/о +25.4 +7.5 32 +25 +25 комфорт 1010.6 1006.3
16 14.01 Ю 6 н/о н/о +24.7 +7.4 33 +25 +25 комфорт 1010.5 1006.2
17 14.01 Ю 6 н/о н/о +24.0 +7.6 35 +24 +24 комфорт 1010.5 1006.2
18 14.01 Ю 6 н/о н/о +23.1 +7.6 37 +24 +24 комфорт 1010.9 1006.6
19 14.01 Ю 7 н/о н/о +22.3 +8.1 40 +23 +23 комфорт 1011.3 1007.0
20 14.01 Ю 7 н/о н/о +22.5 +8.6 41 +24 +24 комфорт 1012.2 1007.9
21 14.01 Ю 7 н/о н/о +23.4 +8.7 39 +25 +25 комфорт 1012.7 1008.4
22 14.01 ЮВ 8 н/о н/о +25.8 +8.8 34 +26 +26 жарко 1012.8 1008.5
23 14.01 ЮВ 9 н/о н/о +27.7 +8.1 29 +27 +27 жарко 1012.8 1008.5
00 15.01 ЮВ 8 н/о н/о +29.7 +7.6 25 +29 +29 жарко 1012.6 1008.3
01 15.01 ЮВ 8 н/о н/о +31.7 +6.7 21 +30 +30 жарко 1012.1 1007.8
02 15.01 ЮВ 6 н/о н/о +32.9 +4.6 17 +30 +30 жарко 1011.8 1007.5
03 15.01 ЮВ 6 н/о н/о +34.5 +4.1 15 +32 +32 жарко 1011.3 1007.0
04 15.01 Ю 7 н/о н/о +35.6 +1.8 12 +32 +32 жарко 1010.3 1006.0
05 15.01 ЮВ 6 н/о н/о +37.2 +0.5 10 +34 +34 очень
жарко
1009.5 1005.2
06 15.01 Ю 7 н/о н/о +37.0 +0.4 10 +33 +33 жарко 1008.7 1004.4
07 15.01 Ю 8 н/о н/о +36.8 +0.2 10 +33 +33 жарко 1007.8 1003.5
08 15.01 Ю 8 н/о н/о +36.2 +1.1 11 +33 +33 жарко 1007.5 1003.2
09 15.01 Ю 8 н/о н/о +35.6 +1.8 12 +32 +32 жарко 1007.6 1003.3
10 15.01 Ю 7 н/о н/о +34.3 +2.0 13 +31 +31 жарко 1008.1 1003.8
11 15.01 Ю 6 н/о н/о +32.7 +2.7 15 +30 +30 жарко 1008.5 1004.2
12 15.01 Ю 6 н/о н/о +31.0 +3.1 17 +29 +29 жарко 1009.1 1004.8
13 15.01 Ю 6 н/о н/о +29.5 +2.7 18 +27 +27 жарко 1009.6 1005.3
14 15.01 ЮВ 5 н/о н/о +28.3 +2.5 19 +26 +26 жарко 1009.5 1005.2
15 15.01 ЮВ 6 н/о н/о +28.0 +1.5 18 +26 +26 жарко 1009.2 1004.9
16 15.01 ЮВ 5 н/о н/о +26.3 +1.6 20 +25 +25 комфорт 1008.7 1004.4
17 15.01 ЮВ 4 н/о н/о +25.0 +1.8 22 +24 +24 комфорт 1008.6 1004.3
18 15.01 ЮВ 5 н/о н/о +25.1 +2.5 23 +24 +24 комфорт 1008.4 1004.1
19 15.01 ЮВ 5 н/о н/о +23.1 +2.6 26 +23 +23 комфорт 1008.7 1004.4
20 15.01 ЮВ 5 н/о н/о +22.8 +2.8 27 +22 +22 комфорт 1008.9 1004.6
21 15.01 ЮВ 5 н/о н/о +25.1 +3.1 24 +24 +24 комфорт 1009.2 1004.9
22 15.01 ЮВ 7 н/о н/о +29.3 +2.5 18 +27 +27 жарко 1009.3 1005.0
23 15.01 В 9 н/о н/о +32.6 +1.7 14 +30 +30 жарко 1009.3 1005.0
00 16.01 В 7 н/о н/о +35.5 +1.8 12 +32 +32 жарко 1009.0 1004.7
01 16.01 В 7 н/о н/о +37.7 +0.9 10 +34 +34 очень
жарко
1008.6 1004.3
02 16.01 В 6 н/о н/о +39.3 +0.6 9 +36 +36 очень
жарко
1008.1 1003.8
03 16.01 В 4 н/о н/о +39.8 -0.6 8 +36 +36 очень
жарко
1007.6 1003.3
04 16.01 ЮВ 2 н/о н/о +40.9 -1.6 7 +37 +37 очень
жарко
1006.8 1002.5
05 16.01 В 4 н/о н/о +41.1 -1.5 7 +37 +37 очень
жарко
1006.0 1001.7
06 16.01 С 3 н/о н/о +41.9 -3.0 6 +38 +38 очень
жарко
1005.5 1001.2
07 16.01 В 5 н/о н/о +41.7 -3.1 6 +38 +38 очень
жарко
1004.9 1000.6
08 16.01 ЮВ 3 н/о н/о +41.8 -3.1 6 +38 +38 очень
жарко
1004.7 1000.4
09 16.01 ЮВ 6 н/о н/о +40.6 -1.9 7 +37 +37 очень
жарко
1005.0 1000.7
10 16.01 ЮВ 5 н/о н/о +39.0 -3.0 7 +35 +35 очень
жарко
1005.5 1001.2
11 16.01 ЮВ 4 н/о н/о +37.3 -2.4 8 +33 +33 жарко 1005.9 1001.6
12 16.01 Ю 5 н/о н/о +35.2 -2.4 9 +31 +31 жарко 1006.1 1001.8
13 16.01 ЮВ 5 н/о н/о +33.8 -3.5 9 +30 +30 жарко 1006.2 1001.9
14 16.01 ЮВ 4 н/о н/о +30.2 -3.5 11 +27 +27 жарко 1006.0 1001.7
15 16.01 С 5 н/о н/о +28.8 -2.3 13 +26 +26 жарко 1006.1 1001.8
16 16.01 В 1 н/о н/о +27.2 -1.7 15 +25 +25 комфорт 1006.0 1001.7

 

Местоположение метеостанции Moomba Airport (Южная Австралия, Австралия): широта -28.10 долгота 140.20 высота над уровнем моря 38 м.

В архиве по умолчанию представлена погода в Moomba Airport за последнюю неделю. Архивные данные за месяц целиком и за предыдущие месяцы, начиная с января 2011 года, Вы можете получить, выбрав интересующий диапазон дат из раскрывающегося списка и нажав кнопку "Ввод!".

Внимание! Время в таблицах - всемирное. Для получения местного времени необходимо прибавить поправку, которая в Moomba Airport равна 9.5 ч.

Ветер - указаны скорость ветра в м/с - средняя за 10 мин, порывы в срок и между сроками (в фигурных скобках) и направление, откуда дует ветер: С - северный, СВ - северо-восточный, В - восточный, ЮВ - юго-восточный, Ю - южный, ЮЗ - юго-западный, З - западный, СЗ - северо-западный.
Видимость - горизонтальная дальность видимости в метрах или километрах. При видимости от 1 до 10 км при отсутствии осадков обычно наблюдается дымка, при ухудшении видимости до 1 км и менее - туман. В сухую погоду видимость может ухудшаться дымом, пылью или мглою.
Явления - указаны атмосферные явления, наблюдавшиеся в срок или в последний час перед сроком; фигурными скобками обозначены явления, наблюдавшиеся между сроками (за 1-3 часа до срока); квадратными скобками обозначены град или гололедные отложения с указанием их диаметра в мм.
Облачность - указаны через наклонную черту общая и нижняя облачность в баллах и высота нижней границы облаков в метрах; квадратными скобками обозначены формы облаков: Ci - перистые, Cs - перисто-слоистые, Cc - перисто-кучевые, Ac - высококучевые, As - высокослоистые, Sc - слоисто-кучевые, Ns - слоисто-дождевые, Cu - кучевые, Cb - кучево-дождевые. Подробнее классификацию облаков см. в Атласе облаков (PDF).
T - Температура воздуха - температура, измеренная на высоте 2 м над землей.
Td - Температура точки росы - температура, при понижении до которой содержащийся в воздухе водяной пар достигнет насыщения.
f - Относительная влажность воздуха - влажноcть воздуха, измеренная на высоте 2 м над землей.
Te - Эффективная температура - температура, которую ощущает одетый по сезону человек в тени. Характеристика душности погоды. При расчете учитывается влияние влажности воздуха и скорости ветра на теплоощущения человека.
Tes - Эффективная температура на солнце - температура, которую ощущает человек, с поправкой на солнечный нагрев. Характеристика знойности погоды. Зависит от высоты солнца над горизонтом, облачности и скорости ветра. Ночью, в пасмурную погоду, а также при ветре 12 м/с и более поправка равна нулю.
P - Атмосферное давление - приведенное к уровню моря атмосферное давление.
Po - Атмосферное давление - измеренное на уровне метеостанции атмосферное давление.
Tmin - Минимальная температура - минимум температуры воздуха на высоте 2 м над землей.
Tmax - Максимальная температура - максимум температуры воздуха на высоте 2 м над землей.
R - Количество осадков - Количество выпавших осадков, мм. При наведении курсора мыши на число - период времени, за который выпало указанное количество осадков.
S - Снежный покров - Высота снежного покрова, см. При наведении курсора мыши на число - состояние снежного покрова и степень покрытия местности в баллах.